[[{"header":{"parameterUnit":"m.s-1","parameterCategory":2,"la1":30.2991,"la2":30.254,"lo1":-89.0895,"lo2":-89.0444,"dy":0.0017,"dx":0.0017,"nx":28,"ny":28,"refTime":"2024-03-05T09:00:00:Z","depth":"0","parameterNumber":2,"parameterNumberName":"U-component_of_CURRENTS"},"data":[0,0,0,0,0,0,0,0,0,0,0,0,0,0,0,0,0,0,0,0,0,0,0,0,0,0,0,0,0,0,0,0,0,0,0,0,0,0,0,0,0,0,0,0,0,0,0,0,0,0,0,0,0,0,0,0,0,0,0.5009,0.5009,0,0.5009,0.5009,0.5009,0.4965,0.4964,0.4963,0.4962,0.4911,0.4911,0.4911,0,0,0,0,0,0,0,0,0,0,0,0,0,0.5001,0.5001,0.5009,0.5009,0.5009,0.5009,0.5009,0.5009,0.4965,0.4964,0.4962,0.4961,0.4911,0.4911,0.4911,0,0,0,0,0,0,0,0,0,0,0,0,0,0.5003,0.5002,0.5009,0.4987,0.4985,0.5009,0.5009,0.5009,0.4966,0.4964,0.4962,0.496,0.4912,0.4911,0.4911,0.4944,0,0,0.491,0.491,0,0,0,0,0,0,0,0,0.5003,0.5004,0.4991,0.4989,0.4987,0.4985,0.4988,0.4985,0.4966,0.4973,0.4962,0.496,0.4933,0.493,0.4935,0.4942,0.4939,0.491,0.4909,0.4909,0.4909,0,0,0,0,0,0,0,0.5003,0.5004,0.501,0.4991,0.4988,0.4987,0.4985,0.4987,0.4962,0.4973,0.4969,0.4969,0.4931,0.4936,0.4934,0.4939,0.491,0.4909,0.4909,0.4909,0.4996,0.4999,0,0,0,0,0,0,0.5003,0.5004,0.501,0.501,0.499,0.4989,0.4987,0.4988,0.4963,0.4958,0.4971,0.4967,0.4937,0.4934,0.4932,0.5012,0.4909,0.4909,0.4909,0.4994,0.4997,0.5,0,0,0,0,0,0,0.5003,0.5004,0.501,0.5006,0.5007,0.499,0.4992,0.4989,0.5,0.4962,0.4956,0.4986,0.4936,0.4932,0.4948,0.5007,0.4909,0.4908,0.4991,0.4995,0.4998,0.5145,0,0,0,0,0,0,0.5003,0.5004,0.5018,0.5006,0.5007,0.5035,0.4994,0.499,0.5002,0.4997,0.4974,0.4966,0.4934,0.4949,0.4947,0.5005,0.4908,0.4988,0.4992,0.4997,0.5137,0.5153,0.5167,0,0,0,0,0,0.5003,0.5022,0.5019,0.502,0.5022,0.5037,0.5038,0.502,0.5004,0.5022,0.5006,0.4967,0.4978,0.4951,0.4948,0.5008,0.4985,0.4991,0.4997,0.513,0.515,0.5167,0,0,0,0,0,0,0.5006,0.5019,0.5015,0.5032,0.5041,0.5029,0.5042,0.5037,0.5041,0.5035,0.4997,0.4991,0.5031,0.4999,0.4969,0.5047,0.4977,0.4983,0.5079,0.5098,0.5113,0.5125,0.4908,0,0,0,0,0,0.5021,0.5048,0.5049,0.5064,0.5069,0.5064,0.5071,0.5065,0.5061,0.506,0.5044,0.5036,0.5056,0.5057,0.5057,0.5098,0.5076,0.5135,0.5151,0.5164,0.5173,0.5192,0.521,0.5018,0.5018,0.5018,0,0,0.5019,0.5036,0.5045,0.507,0.507,0.5092,0.5064,0.5082,0.5112,0.5056,0.5088,0.5089,0.5078,0.5126,0.5141,0.5104,0.5212,0.5171,0.5182,0.5184,0.52,0.5219,0.5235,0.5022,0.5021,0.5021,0,0,0.5039,0.5051,0.5083,0.5104,0.5126,0.5124,0.5136,0.5141,0.5156,0.5186,0.5173,0.5211,0.5206,0.5235,0.5244,0.5344,0.5294,0.5345,0.5431,0.5451,0.5467,0.548,0.5496,0.5509,0.535,0.535,0.5351,0,0.5042,0.5074,0.5093,0.5131,0.5148,0.5143,0.5173,0.5199,0.5212,0.524,0.5205,0.5264,0.5263,0.5353,0.5397,0.5382,0.5374,0.5364,0.5472,0.5484,0.5496,0.5508,0.5521,0.5358,0.5357,0.5356,0.5356,0,0.5076,0.5114,0.5131,0.518,0.5209,0.523,0.5263,0.5297,0.5302,0.5324,0.5401,0.5412,0.5439,0.5471,0.5466,0.5573,0.5537,0.5491,0.5425,0.5524,0.553,0.5541,0.5369,0.5366,0.5364,0.5362,0,0,0.504,0.5139,0.5142,0.5176,0.5235,0.5251,0.5324,0.5381,0.5423,0.546,0.553,0.5602,0.5606,0.5619,0.5637,0.5681,0.5778,0.5634,0.5631,0.5651,0.5823,0.5691,0.569,0.5747,0.575,0.5752,0.5802,0,0.5053,0.5125,0.5182,0.5241,0.5269,0.5319,0.5382,0.5446,0.5486,0.5555,0.5619,0.568,0.5664,0.5696,0.5743,0.5787,0.5811,0.5769,0.5723,0.5722,0.5593,0.5699,0.5544,0.5566,0.5812,0.5814,0.5815,0,0.5052,0.5105,0.5162,0.5269,0.5287,0.5327,0.5411,0.5477,0.5593,0.5636,0.5716,0.5751,0.5881,0.5817,0.5917,0.589,0.5863,0.5872,0.5872,0.5701,0.561,0.5503,0.5575,0.549,0.5831,0.583,0.5829,0,0.4974,0.509,0.5129,0.516,0.5272,0.5318,0.5382,0.5489,0.5555,0.5695,0.5747,0.5868,0.5922,0.5955,0.5984,0.5954,0.606,0.6001,0.5847,0.5837,0.567,0.564,0.5649,0.6017,0.6017,0.6017,0.6016,0,0.4942,0.4979,0.5095,0.5104,0.5165,0.5275,0.5347,0.5433,0.5571,0.5647,0.5777,0.5842,0.5953,0.6021,0.6028,0.5992,0.6079,0.5886,0.5849,0.5717,0.5692,0.5576,0.5531,0.6018,0.6018,0.6018,0.6017,0,0.4849,0.4916,0.4964,0.5081,0.5119,0.5158,0.5311,0.5366,0.5515,0.5623,0.5679,0.5847,0.5938,0.6024,0.6087,0.6012,0.5861,0.5954,0.5796,0.5738,0.5468,0.5435,0.5162,0.5006,0.5798,0.5796,0.5793,0,0.4805,0.4821,0.4911,0.4928,0.4978,0.5066,0.512,0.5298,0.5366,0.5596,0.5636,0.5787,0.5855,0.5939,0.5886,0.5881,0.5732,0.5661,0.5556,0.5453,0.5393,0.5188,0.5063,0.5414,0.5409,0.5404,0.5401,0,0.4732,0.4756,0.4787,0.4815,0.4859,0.4934,0.5039,0.5089,0.5293,0.5376,0.55,0.5598,0.5704,0.5636,0.5633,0.5601,0.5426,0.5561,0.5508,0.5138,0.4864,0.4696,0.5392,0.5362,0.5366,0.5369,0.5371,0.5372,0.4662,0.4657,0.4683,0.4696,0.4744,0.4789,0.4765,0.4886,0.4955,0.5005,0.5236,0.5244,0.5365,0.5349,0.5304,0.514,0.5085,0.4997,0.4986,0.4803,0.4575,0.5175,0.5057,0.5059,0.5061,0.5063,0.5064,0,0.4554,0.4561,0.4574,0.4557,0.4526,0.462,0.4677,0.4597,0.4559,0.4685,0.4721,0.4781,0.4766,0.4846,0.4818,0.4649,0.4436,0.4528,0.4268,0.4187,0.4796,0.4707,0.4442,0.4442,0.4442,0.4442,0.4442,0.4442,0.4496,0.4442,0.4436,0.4329,0.4319,0.4199,0.4174,0.4085,0.4109,0.4011,0.3988,0.4097,0.4416,0.4555,0.4469,0.4355,0.4068,0.3852,0.3822,0.4366,0.4411,0.4454,0.4362,0.4029,0.4028,0.3067,0.306,0.3055]},{"header":{"parameterUnit":"m.s-1","parameterCategory":2,"la1":30.2991,"la2":30.254,"lo1":-89.0895,"lo2":-89.0444,"dy":0.0017,"dx":0.0017,"nx":28,"ny":28,"refTime":"2024-03-05T09:00:00:Z","depth":"0","parameterNumber":3,"parameterNumberName":"V-component_of_CURRENTS"},"data":[0,0,0,0,0,0,0,0,0,0,0,0,0,0,0,0,0,0,0,0,0,0,0,0,0,0,0,0,0,0,0,0,0,0,0,0,0,0,0,0,0,0,0,0,0,0,0,0,0,0,0,0,0,0,0,0,0,0,-0.0123,-0.0123,0,-0.0169,-0.0169,-0.017,-0.0211,-0.0211,-0.0212,-0.0212,-0.0298,-0.03,-0.0302,0,0,0,0,0,0,0,0,0,0,0,0,0,-0.0114,-0.0114,-0.0123,-0.0123,-0.0123,-0.0169,-0.0169,-0.017,-0.0211,-0.0211,-0.0212,-0.0212,-0.0297,-0.03,-0.0302,0,0,0,0,0,0,0,0,0,0,0,0,0,-0.0138,-0.0114,-0.0123,-0.0147,-0.0149,-0.0168,-0.017,-0.0171,-0.0211,-0.0211,-0.0212,-0.0212,-0.0297,-0.03,-0.0303,-0.0318,0,0,-0.0313,-0.0314,0,0,0,0,0,0,0,0,-0.0137,-0.0139,-0.0143,-0.0145,-0.0148,-0.0181,-0.0198,-0.0221,-0.0211,-0.0191,-0.0212,-0.0212,-0.026,-0.0267,-0.0279,-0.0322,-0.0326,-0.0313,-0.0315,-0.0316,-0.0317,0,0,0,0,0,0,0,-0.0135,-0.0137,-0.0145,-0.0143,-0.0146,-0.017,-0.0173,-0.0203,-0.0227,-0.0193,-0.0195,-0.0195,-0.0263,-0.0276,-0.0281,-0.0327,-0.0313,-0.0316,-0.0318,-0.0319,-0.0369,-0.0369,0,0,0,0,0,0,-0.0119,-0.0135,-0.0143,-0.0146,-0.0139,-0.0169,-0.0173,-0.0173,-0.0226,-0.0233,-0.0194,-0.0196,-0.027,-0.0278,-0.0285,-0.0279,-0.0316,-0.0319,-0.0321,-0.037,-0.0369,-0.0368,0,0,0,0,0,0,-0.0119,-0.012,-0.0141,-0.0139,-0.0143,-0.0168,-0.0168,-0.0174,-0.018,-0.0226,-0.0235,-0.0194,-0.0271,-0.028,-0.0298,-0.0284,-0.0321,-0.0324,-0.037,-0.037,-0.0369,-0.0286,0,0,0,0,0,0,-0.0119,-0.0119,-0.0116,-0.0138,-0.0142,-0.0135,-0.0168,-0.0174,-0.0178,-0.0181,-0.0228,-0.0237,-0.0272,-0.0292,-0.0301,-0.0289,-0.0326,-0.0371,-0.037,-0.0369,-0.0289,-0.0282,-0.0276,0,0,0,0,0,-0.0118,-0.0104,-0.0116,-0.0117,-0.0136,-0.0134,-0.0138,-0.016,-0.0178,-0.017,-0.0204,-0.0235,-0.0292,-0.0294,-0.0304,-0.0293,-0.0372,-0.037,-0.0369,-0.0292,-0.0284,-0.0276,0,0,0,0,0,0,-0.0095,-0.0108,-0.012,-0.0111,-0.0115,-0.0139,-0.0134,-0.0152,-0.0174,-0.0177,-0.0228,-0.0238,-0.0252,-0.0282,-0.0284,-0.0305,-0.0337,-0.0338,-0.0275,-0.0268,-0.0261,-0.0224,-0.0329,0,0,0,0,0,-0.0088,-0.0086,-0.0097,-0.0089,-0.0086,-0.011,-0.0114,-0.0125,-0.0145,-0.0155,-0.019,-0.0226,-0.0255,-0.0267,-0.0299,-0.0307,-0.0323,-0.0307,-0.03,-0.0294,-0.0271,-0.0283,-0.0274,-0.0364,-0.0364,-0.0364,0,0,-0.0077,-0.0084,-0.0083,-0.0085,-0.0092,-0.0074,-0.0113,-0.0105,-0.0092,-0.0162,-0.0161,-0.0207,-0.0254,-0.0264,-0.0272,-0.0285,-0.0279,-0.0293,-0.0287,-0.0267,-0.028,-0.0271,-0.0264,-0.0363,-0.0363,-0.0363,0,0,-0.0041,-0.0056,-0.0036,-0.0034,-0.0033,-0.0044,-0.0035,-0.0051,-0.0059,-0.0065,-0.0114,-0.0142,-0.0187,-0.0213,-0.0234,-0.0208,-0.0247,-0.0227,-0.0159,-0.017,-0.0163,-0.0156,-0.0168,-0.0163,-0.0219,-0.0218,-0.0218,0,-0.0029,-0.0001,-0.0028,-0.0003,0.0011,-0.0022,0.0015,0.0003,-0.0019,-0.0014,-0.005,-0.0109,-0.0158,-0.0162,-0.0159,-0.0191,-0.0204,-0.0185,-0.016,-0.0154,-0.0148,-0.0162,-0.0158,-0.0214,-0.0215,-0.0215,-0.0216,0,0.0032,0.005,0.0067,0.0085,0.0094,0.0121,0.0111,0.0115,0.0094,0.0078,0.0066,-0.0005,-0.0035,-0.0064,-0.0107,-0.0094,-0.0118,-0.0153,-0.0175,-0.0134,-0.0152,-0.0149,-0.0208,-0.021,-0.0211,-0.0212,0,0,0.0076,0.0103,0.0113,0.0141,0.0147,0.0169,0.0192,0.0215,0.0246,0.0196,0.0231,0.0151,0.0107,0.0081,0.0017,0.0001,0.0009,-0.0052,-0.0055,-0.0054,-0.0011,-0.0039,-0.0039,-0.0021,-0.002,-0.0019,-0.004,0,0.0138,0.021,0.0202,0.0274,0.0314,0.0295,0.0326,0.0334,0.0324,0.0345,0.0276,0.0273,0.0164,0.0155,0.0117,0.0047,0.0022,0.0019,-0.0059,-0.0061,-0.0082,-0.0034,0.0001,-0.0015,-0.0037,-0.0037,-0.0036,0,0.0212,0.025,0.0338,0.0383,0.0401,0.0435,0.0492,0.0512,0.052,0.0512,0.0485,0.043,0.0396,0.0299,0.02,0.0204,0.0106,0.004,0.0037,-0.001,-0.0082,-0.0061,-0.0009,-0.0248,-0.0032,-0.0032,-0.0033,0,0.0288,0.0347,0.0426,0.0443,0.0489,0.0529,0.0552,0.0572,0.0616,0.0629,0.0672,0.0589,0.0582,0.0454,0.0295,0.0256,0.0195,0.012,-0.0,-0.0004,0.0002,-0.0003,-0.0173,0.0052,0.0052,0.0052,0.0052,0,0.0369,0.0427,0.0472,0.0521,0.0618,0.0611,0.0711,0.0723,0.0765,0.0862,0.0766,0.0827,0.0623,0.0553,0.0374,0.0215,0.025,0.0035,-0.0001,0.003,0.0028,-0.02,-0.0334,0.0051,0.0052,0.0052,0.0052,0,0.0441,0.0472,0.0565,0.0633,0.0663,0.0734,0.0822,0.089,0.0919,0.1049,0.1071,0.1023,0.0946,0.0733,0.0545,0.0341,0.0048,0.0101,0.015,0.012,-0.0237,-0.0366,-0.0551,-0.0665,-0.003,-0.0031,-0.0031,0,0.0485,0.0542,0.0656,0.0728,0.0767,0.0863,0.0937,0.0973,0.1062,0.1192,0.1276,0.1238,0.1276,0.0974,0.0607,0.0308,0.0059,0.0094,0.001,-0.0231,-0.0402,-0.0506,-0.0596,0.0047,0.0047,0.0047,0.0048,0,0.0566,0.0611,0.0695,0.0838,0.0938,0.1048,0.1162,0.1262,0.1351,0.1495,0.1669,0.1722,0.144,0.1157,0.0696,0.0459,-0.0071,0.0084,-0.0169,-0.0349,-0.0466,-0.0599,0.0023,0.0049,0.0048,0.0048,0.0048,0.0048,0.0633,0.0705,0.0824,0.0958,0.1077,0.1234,0.1358,0.1511,0.1715,0.1964,0.1968,0.2119,0.1652,0.1046,0.0658,-0.0051,-0.008,-0.0275,-0.0406,-0.0487,-0.0613,0.0007,-0.0014,-0.0015,-0.0015,-0.0015,-0.0016,0,0.072,0.0801,0.0929,0.1106,0.125,0.1292,0.1511,0.1666,0.1958,0.2203,0.2386,0.229,0.1693,0.1044,0.0099,-0.0434,-0.0639,-0.0734,-0.088,-0.0948,-0.0385,-0.0401,-0.0501,-0.0501,-0.0501,-0.0501,-0.05,-0.05,0.0777,0.0911,0.0972,0.1223,0.1348,0.1559,0.1701,0.1961,0.2184,0.2532,0.2678,0.2735,0.2275,0.0556,-0.0641,-0.0928,-0.13,-0.1382,-0.1598,-0.123,-0.1198,-0.1167,-0.1215,-0.1485,-0.1486,-0.2086,-0.2093,-0.2097]}],[{"header":{"parameterUnit":"m.s-1","parameterCategory":2,"la1":30.2991,"la2":30.254,"lo1":-89.0895,"lo2":-89.0444,"dy":0.0017,"dx":0.0017,"nx":28,"ny":28,"refTime":"2024-03-05T09:00:00:Z","depth":"2","parameterNumber":2,"parameterNumberName":"U-component_of_CURRENTS"},"data":[0,0,0,0,0,0,0,0,0,0,0,0,0,0,0,0,0,0,0,0,0,0,0,0,0,0,0,0,0,0,0,0,0,0,0,0,0,0,0,0,0,0,0,0,0,0,0,0,0,0,0,0,0,0,0,0,0,0,0.3378,0.3378,0,0.3416,0.3416,0.3416,0.3417,0.3417,0.3417,0.3416,0.3449,0.345,0.3451,0,0,0,0,0,0,0,0,0,0,0,0,0,0.332,0.3321,0.3377,0.3378,0.3379,0.3416,0.3416,0.3416,0.3417,0.3417,0.3417,0.3416,0.3448,0.345,0.3451,0,0,0,0,0,0,0,0,0,0,0,0,0,0.3347,0.3321,0.3377,0.3386,0.3388,0.3416,0.3416,0.3416,0.3417,0.3417,0.3417,0.3416,0.3448,0.345,0.3451,0.3466,0,0,0.3456,0.3456,0,0,0,0,0,0,0,0,0.3346,0.3349,0.3384,0.3386,0.3387,0.3414,0.3408,0.3434,0.3417,0.3403,0.3416,0.3416,0.3439,0.3441,0.3445,0.3467,0.3469,0.3456,0.3457,0.3457,0.3458,0,0,0,0,0,0,0,0.3344,0.3348,0.3389,0.3385,0.3387,0.3394,0.3397,0.3412,0.3419,0.3404,0.3405,0.3414,0.3439,0.3443,0.3445,0.3469,0.3456,0.3457,0.3458,0.3459,0.3579,0.3581,0,0,0,0,0,0,0.3345,0.3346,0.3388,0.3391,0.3369,0.3395,0.3398,0.3403,0.3419,0.3422,0.3414,0.3414,0.3441,0.3444,0.3447,0.3523,0.3457,0.3459,0.346,0.3577,0.358,0.3582,0,0,0,0,0,0,0.3344,0.3348,0.3387,0.3372,0.3378,0.3397,0.3402,0.3404,0.3438,0.3428,0.343,0.345,0.344,0.3444,0.3491,0.3522,0.346,0.3461,0.3574,0.3578,0.3581,0.364,0,0,0,0,0,0,0.3342,0.3348,0.3358,0.3372,0.3379,0.3431,0.3403,0.3405,0.3444,0.3445,0.3459,0.3459,0.3441,0.3489,0.3493,0.3523,0.3462,0.3571,0.3576,0.358,0.3635,0.3645,0.3653,0,0,0,0,0,0.334,0.335,0.3358,0.3364,0.339,0.3433,0.3438,0.3447,0.3446,0.3474,0.3483,0.3461,0.3519,0.3493,0.3496,0.3528,0.3569,0.3575,0.358,0.3631,0.3643,0.3653,0,0,0,0,0,0,0.3333,0.3352,0.3361,0.3378,0.3419,0.3435,0.3457,0.3472,0.3501,0.3498,0.3491,0.3494,0.3547,0.3538,0.351,0.3578,0.354,0.3547,0.3578,0.3589,0.3598,0.3628,0.3464,0,0,0,0,0,0.3337,0.3346,0.3383,0.34,0.3424,0.3451,0.3472,0.3481,0.3505,0.3518,0.3524,0.3537,0.3567,0.358,0.3596,0.3635,0.365,0.366,0.3669,0.3676,0.3706,0.3755,0.3771,0.3599,0.3599,0.3599,0,0,0.3336,0.3351,0.3355,0.3399,0.3426,0.3474,0.3463,0.3502,0.3538,0.3517,0.3563,0.3574,0.3589,0.3629,0.3651,0.3627,0.3733,0.3683,0.3689,0.3715,0.3762,0.3779,0.3794,0.3603,0.3602,0.3601,0,0,0.3342,0.3361,0.3379,0.3423,0.3473,0.3497,0.3522,0.3558,0.3574,0.3622,0.3619,0.3663,0.3687,0.371,0.3725,0.3803,0.3785,0.3798,0.3861,0.3909,0.3923,0.3936,0.3972,0.3988,0.3796,0.3796,0.3796,0,0.3338,0.3367,0.3396,0.3442,0.3472,0.3519,0.3559,0.3598,0.364,0.3655,0.3645,0.3717,0.3732,0.3802,0.3833,0.3825,0.3841,0.3811,0.392,0.3933,0.3945,0.3979,0.3996,0.3799,0.3799,0.3798,0.3798,0,0.3373,0.3403,0.3425,0.3491,0.3538,0.3577,0.3639,0.3682,0.3703,0.3726,0.3793,0.382,0.3867,0.3876,0.3884,0.3979,0.3959,0.3927,0.3888,0.3966,0.3997,0.4013,0.3804,0.3803,0.3802,0.3801,0,0,0.3324,0.3421,0.3429,0.3463,0.3557,0.3593,0.3672,0.3739,0.3792,0.3831,0.3891,0.396,0.3977,0.4001,0.4014,0.4063,0.4168,0.4041,0.4042,0.4071,0.427,0.4199,0.4209,0.4146,0.4149,0.4152,0.4253,0,0.3334,0.3396,0.3454,0.3528,0.3565,0.3641,0.3718,0.3788,0.3838,0.3912,0.3958,0.4028,0.4024,0.406,0.4115,0.4163,0.4215,0.4144,0.4197,0.4199,0.4121,0.4228,0.3888,0.3945,0.4269,0.4272,0.4274,0,0.3357,0.3379,0.3438,0.3531,0.3561,0.3627,0.3735,0.3806,0.3927,0.397,0.4048,0.4095,0.421,0.4182,0.4312,0.4263,0.4291,0.4311,0.4313,0.4245,0.416,0.3922,0.3962,0.43,0.4298,0.4296,0.4294,0,0.3291,0.3379,0.3412,0.3446,0.3565,0.3612,0.3685,0.381,0.3878,0.4016,0.4082,0.4196,0.4275,0.4336,0.4409,0.4369,0.4529,0.4463,0.4423,0.4417,0.414,0.4105,0.4558,0.4557,0.4557,0.4557,0.4557,0,0.3274,0.3292,0.3387,0.3402,0.3466,0.3568,0.3664,0.3757,0.3901,0.3987,0.411,0.4203,0.4323,0.4422,0.4454,0.4508,0.4568,0.4476,0.4455,0.4151,0.4116,0.4429,0.4412,0.4561,0.456,0.4559,0.4559,0,0.3199,0.3257,0.3298,0.3402,0.344,0.3486,0.3647,0.3705,0.3868,0.399,0.4046,0.4241,0.4375,0.4475,0.4592,0.4565,0.4615,0.461,0.425,0.4187,0.4454,0.444,0.4575,0.4574,0.4573,0.4572,0.4571,0,0.3154,0.318,0.328,0.3298,0.3343,0.343,0.3485,0.366,0.3732,0.3994,0.4036,0.4242,0.4344,0.4509,0.4515,0.4565,0.4629,0.4257,0.4126,0.4499,0.4465,0.4452,0.444,0.3775,0.3768,0.3762,0.3758,0,0.3067,0.3128,0.3155,0.3204,0.3252,0.3314,0.3412,0.347,0.3675,0.3798,0.3959,0.4074,0.4266,0.4181,0.4277,0.4248,0.4223,0.414,0.4632,0.3832,0.3755,0.3719,0.3731,0.3705,0.371,0.3714,0.3717,0.3719,0.2999,0.3006,0.3064,0.3098,0.3143,0.3167,0.3168,0.3286,0.3388,0.3527,0.3743,0.3803,0.3901,0.3878,0.3787,0.3722,0.4008,0.381,0.3823,0.3844,0.3742,0.3668,0.3583,0.3587,0.3591,0.3594,0.3597,0,0.29,0.2919,0.2945,0.2959,0.2939,0.303,0.3082,0.3052,0.3087,0.326,0.3377,0.3197,0.3189,0.3275,0.3111,0.3138,0.3055,0.2994,0.2844,0.2902,0.2953,0.2798,0.2392,0.2387,0.2383,0.2379,0,0,0.2837,0.2809,0.2818,0.274,0.2758,0.2684,0.268,0.2671,0.2739,0.2739,0.2763,0.3043,0.3192,0.2742,0.2708,0.2509,0.2665,0.2409,0.339,0.3271,0.3315,0.3458,0.3293,0,0,0,0,0]},{"header":{"parameterUnit":"m.s-1","parameterCategory":2,"la1":30.2991,"la2":30.254,"lo1":-89.0895,"lo2":-89.0444,"dy":0.0017,"dx":0.0017,"nx":28,"ny":28,"refTime":"2024-03-05T09:00:00:Z","depth":"2","parameterNumber":3,"parameterNumberName":"V-component_of_CURRENTS"},"data":[0,0,0,0,0,0,0,0,0,0,0,0,0,0,0,0,0,0,0,0,0,0,0,0,0,0,0,0,0,0,0,0,0,0,0,0,0,0,0,0,0,0,0,0,0,0,0,0,0,0,0,0,0,0,0,0,0,0,0.0182,0.0181,0,0.0121,0.012,0.012,0.0071,0.0071,0.007,0.007,-0.0012,-0.0014,-0.0015,0,0,0,0,0,0,0,0,0,0,0,0,0,0.0203,0.0203,0.0182,0.0181,0.0181,0.0121,0.012,0.0119,0.0071,0.0071,0.007,0.007,-0.0011,-0.0013,-0.0015,0,0,0,0,0,0,0,0,0,0,0,0,0,0.0173,0.0203,0.0182,0.015,0.0146,0.0121,0.012,0.0119,0.0071,0.0071,0.007,0.007,-0.0011,-0.0013,-0.0016,-0.0019,0,0,-0.0024,-0.0025,0,0,0,0,0,0,0,0,0.0175,0.0172,0.0155,0.0152,0.0148,0.0103,0.0098,0.0072,0.0072,0.0099,0.007,0.0069,0.0026,0.002,0.001,-0.0022,-0.0026,-0.0024,-0.0026,-0.0027,-0.0028,0,0,0,0,0,0,0,0.0177,0.0174,0.0158,0.0155,0.015,0.012,0.0115,0.0092,0.0066,0.0097,0.0093,0.0087,0.0023,0.0012,0.0007,-0.0027,-0.0024,-0.0026,-0.0028,-0.0029,-0.0076,-0.0076,0,0,0,0,0,0,0.0189,0.0177,0.0159,0.0156,0.016,0.012,0.0115,0.0118,0.0067,0.0059,0.0088,0.0085,0.0017,0.0011,0.0004,0.0008,-0.0027,-0.0029,-0.0031,-0.0077,-0.0076,-0.0076,0,0,0,0,0,0,0.019,0.0189,0.0162,0.0164,0.0159,0.0121,0.0124,0.0117,0.0107,0.006,0.0052,0.0085,0.0016,0.0008,-0.0013,0.0004,-0.003,-0.0033,-0.0077,-0.0077,-0.0076,0.001,0,0,0,0,0,0,0.0191,0.0189,0.0195,0.0166,0.0159,0.0157,0.0125,0.0117,0.0105,0.01,0.0055,0.0047,0.0015,-0.0009,-0.0016,0.0,-0.0035,-0.0078,-0.0077,-0.0076,0.0006,0.0013,0.0019,0,0,0,0,0,0.0192,0.0211,0.0196,0.0193,0.0169,0.0158,0.0152,0.0122,0.0105,0.0109,0.0074,0.0048,-0.001,-0.001,-0.0019,-0.0003,-0.0078,-0.0077,-0.0076,0.0004,0.0012,0.0018,0,0,0,0,0,0,0.0223,0.0206,0.019,0.0201,0.0183,0.015,0.0151,0.0129,0.0105,0.0101,0.0054,0.0043,0.0029,0.0,0.0001,-0.0017,-0.0049,-0.0049,0.0015,0.0022,0.0028,0.0054,-0.0037,0,0,0,0,0,0.0233,0.0242,0.0216,0.0225,0.0219,0.0185,0.0176,0.0158,0.0132,0.0121,0.0087,0.0052,0.0026,0.0015,-0.0016,-0.002,-0.0058,-0.0018,-0.0012,-0.0006,0.0008,-0.0038,-0.0035,-0.0074,-0.0074,-0.0074,0,0,0.0246,0.0239,0.0242,0.0232,0.0214,0.0221,0.0178,0.0175,0.0183,0.0116,0.0114,0.0072,0.0028,0.0019,0.001,-0.0002,-0.0016,-0.0005,0.0,0.0012,-0.0037,-0.0033,-0.003,-0.0073,-0.0073,-0.0073,0,0,0.0286,0.0272,0.0294,0.0285,0.0269,0.0252,0.0255,0.0226,0.0214,0.0203,0.0158,0.0129,0.0088,0.0063,0.0045,0.0068,0.0015,0.0054,0.0112,0.0067,0.007,0.0072,0.0029,0.0026,0.0062,0.0062,0.0062,0,0.0301,0.0327,0.0298,0.0316,0.032,0.0272,0.0299,0.0281,0.0249,0.0246,0.0214,0.0153,0.0113,0.0107,0.0111,0.0084,0.0047,0.0091,0.0077,0.0078,0.0079,0.0033,0.0029,0.0066,0.0066,0.0065,0.0065,0,0.0359,0.0374,0.0388,0.0398,0.0397,0.0412,0.0387,0.0383,0.0357,0.0332,0.0311,0.0248,0.0215,0.0193,0.016,0.0152,0.0119,0.0087,0.0063,0.0088,0.0038,0.0033,0.0072,0.0071,0.0069,0.0068,0,0,0.0408,0.0427,0.0431,0.0455,0.0445,0.0457,0.047,0.0471,0.0489,0.0433,0.0447,0.0383,0.0337,0.0314,0.0261,0.0221,0.0188,0.0165,0.0161,0.0131,0.0086,0.0068,0.0059,0.0151,0.015,0.015,0.0048,0,0.0464,0.0524,0.0515,0.0572,0.0602,0.0572,0.0594,0.0585,0.0559,0.0556,0.0483,0.0469,0.0387,0.0376,0.0321,0.0226,0.0179,0.0219,0.0058,0.0054,0.0042,0.0054,0.0091,0.0004,0.0043,0.0042,0.0041,0,0.0529,0.0562,0.0632,0.0674,0.0685,0.0713,0.0744,0.0756,0.0729,0.0709,0.0664,0.0599,0.054,0.0465,0.031,0.0337,0.0224,0.0138,0.0131,0.0084,0.0026,-0.0017,-0.0008,0.0032,0.0032,0.0033,0.0034,0,0.0594,0.0647,0.0713,0.0726,0.076,0.0794,0.0813,0.0806,0.0839,0.0809,0.0822,0.0715,0.0684,0.0526,0.0342,0.0324,0.0166,0.0116,-0.0011,-0.0015,-0.0028,-0.0032,0.0004,0.0004,0.0005,0.0005,0.0005,0,0.0665,0.0713,0.0755,0.0789,0.0881,0.0874,0.0959,0.0955,0.0972,0.1029,0.0912,0.0927,0.0697,0.0575,0.0385,0.018,0.0192,0.0006,-0.0038,0.0001,0.0002,-0.001,-0.001,0.0001,0.0002,0.0003,0.0003,0,0.0726,0.0748,0.0828,0.0886,0.0916,0.0983,0.1069,0.1122,0.1123,0.1194,0.1196,0.1089,0.0931,0.069,0.0439,0.0256,0.0049,-0.003,0.0034,-0.0001,-0.0117,-0.0112,-0.0185,-0.0187,-0.0188,-0.0189,-0.019,0,0.0765,0.0814,0.0906,0.0965,0.1,0.1097,0.1165,0.12,0.1269,0.1304,0.135,0.1223,0.1155,0.0773,0.0431,0.0097,0.0049,-0.0093,-0.0124,-0.0098,-0.0135,-0.0128,-0.0121,-0.0116,-0.0117,-0.0117,-0.0117,0,0.084,0.087,0.0933,0.1054,0.1146,0.1257,0.1362,0.1446,0.15,0.1556,0.1602,0.1551,0.1201,0.0862,0.0405,0.0186,-0.004,-0.0107,-0.0095,-0.0067,-0.004,-0.0073,-0.0068,-0.0118,-0.0118,-0.0118,-0.0118,-0.0118,0.0896,0.0954,0.1037,0.1154,0.1262,0.1404,0.1506,0.162,0.1749,0.1842,0.1788,0.1714,0.1339,0.0753,0.0356,-0.0059,-0.0039,-0.019,-0.0187,-0.0184,-0.0151,-0.0127,-0.0215,-0.0216,-0.0216,-0.0216,-0.0217,0,0.0963,0.1022,0.1128,0.1266,0.1385,0.1439,0.1623,0.1721,0.1879,0.1958,0.1984,0.1629,0.125,0.0813,0.0196,-0.0166,-0.0186,-0.0278,-0.0231,-0.0226,-0.0222,-0.019,-0.0266,-0.0267,-0.0269,-0.027,0,0,0.1,0.11,0.1146,0.1344,0.1444,0.1615,0.1727,0.1868,0.1965,0.2036,0.1997,0.1915,0.1385,0.0929,0.0435,0.0074,0.0012,0.0014,0.0097,0.0218,0.0226,-0.0124,-0.0062,0,0,0,0,0]}],[{"header":{"parameterUnit":"m.s-1","parameterCategory":2,"la1":30.2991,"la2":30.254,"lo1":-89.0895,"lo2":-89.0444,"dy":0.0017,"dx":0.0017,"nx":28,"ny":28,"refTime":"2024-03-05T09:00:00:Z","depth":"4","parameterNumber":2,"parameterNumberName":"U-component_of_CURRENTS"},"data":[0,0,0,0,0,0,0,0,0,0,0,0,0,0,0,0,0,0,0,0,0,0,0,0,0,0,0,0,0,0,0,0,0,0,0,0,0,0,0,0,0,0,0,0,0,0,0,0,0,0,0,0,0,0,0,0,0,0,0.2084,0.2085,0,0.2191,0.2192,0.2192,0.2272,0.2273,0.2274,0.2275,0.2402,0.2405,0.2407,0,0,0,0,0,0,0,0,0,0,0,0,0,0.1949,0.1951,0.2083,0.2085,0.2087,0.219,0.2192,0.2193,0.2272,0.2273,0.2274,0.2275,0.2401,0.2404,0.2407,0,0,0,0,0,0,0,0,0,0,0,0,0,0.2023,0.1951,0.2083,0.2141,0.2148,0.219,0.2192,0.2193,0.2272,0.2273,0.2275,0.2276,0.24,0.2404,0.2408,0.24,0,0,0.2419,0.242,0,0,0,0,0,0,0,0,0.2019,0.2028,0.2131,0.2137,0.2145,0.2223,0.2191,0.2264,0.2271,0.2221,0.2275,0.2277,0.2345,0.2353,0.2365,0.2406,0.2411,0.2419,0.2421,0.2423,0.2424,0,0,0,0,0,0,0,0.2014,0.2024,0.2122,0.2133,0.2141,0.2163,0.2175,0.2205,0.2271,0.2225,0.2232,0.2249,0.2349,0.2361,0.2369,0.2413,0.2419,0.2422,0.2425,0.2426,0.2603,0.2606,0,0,0,0,0,0,0.2006,0.2019,0.2119,0.2126,0.2088,0.2164,0.2177,0.2193,0.227,0.2284,0.2248,0.2253,0.2354,0.2364,0.2373,0.2491,0.2423,0.2426,0.2428,0.2601,0.2604,0.2607,0,0,0,0,0,0,0.2002,0.2014,0.2115,0.2077,0.2092,0.2165,0.2182,0.2195,0.2254,0.2288,0.2302,0.23,0.2356,0.2368,0.2445,0.2492,0.2428,0.2431,0.2598,0.2602,0.2605,0.2648,0,0,0,0,0,0,0.1998,0.2012,0.2037,0.2077,0.2094,0.2169,0.2182,0.2196,0.226,0.2269,0.2336,0.2347,0.2358,0.244,0.2449,0.2496,0.2434,0.2595,0.26,0.2604,0.2643,0.2653,0.2661,0,0,0,0,0,0.1993,0.2016,0.2038,0.2051,0.2122,0.2171,0.2182,0.2236,0.2262,0.2293,0.2345,0.2347,0.2476,0.2444,0.2454,0.2504,0.2592,0.2598,0.2604,0.2639,0.2651,0.266,0,0,0,0,0,0,0.1972,0.2027,0.2052,0.2093,0.2143,0.2186,0.223,0.2259,0.2322,0.2348,0.2373,0.2387,0.2475,0.2485,0.2449,0.2572,0.2538,0.2545,0.2561,0.2572,0.2581,0.2596,0.2437,0,0,0,0,0,0.1977,0.2014,0.2065,0.2104,0.2135,0.2189,0.2224,0.2262,0.2315,0.2347,0.2394,0.2449,0.2497,0.2532,0.2577,0.2636,0.2653,0.2679,0.2687,0.2694,0.2716,0.2775,0.2791,0.2625,0.2625,0.2625,0,0,0.1984,0.2018,0.2043,0.2104,0.2152,0.2202,0.2216,0.2286,0.2338,0.2349,0.2448,0.2485,0.2523,0.2596,0.2636,0.2615,0.2751,0.2702,0.2707,0.2725,0.2783,0.2799,0.2813,0.2629,0.2628,0.2628,0,0,0.2001,0.2048,0.2084,0.2129,0.2208,0.2242,0.2271,0.2343,0.2394,0.247,0.2503,0.2571,0.264,0.2681,0.2705,0.279,0.2797,0.2811,0.2864,0.2921,0.2935,0.2947,0.2982,0.2997,0.2812,0.2812,0.2812,0,0.2008,0.2057,0.2103,0.215,0.2198,0.2264,0.2317,0.2372,0.2462,0.2508,0.2515,0.2646,0.2679,0.2767,0.2804,0.281,0.2838,0.2814,0.2931,0.2943,0.2955,0.2988,0.3004,0.2814,0.2814,0.2814,0.2814,0,0.2042,0.2099,0.2131,0.221,0.2264,0.2326,0.2402,0.2475,0.2536,0.2583,0.2696,0.2742,0.282,0.2841,0.2851,0.2961,0.2952,0.2933,0.2897,0.2974,0.3004,0.302,0.2818,0.2817,0.2817,0.2816,0,0,0.2012,0.213,0.2147,0.2193,0.2306,0.2345,0.2451,0.2546,0.2618,0.2704,0.2791,0.2882,0.292,0.2953,0.298,0.3033,0.3136,0.3031,0.3033,0.3053,0.3261,0.3055,0.3052,0.314,0.3144,0.3146,0.3244,0,0.2032,0.2113,0.2177,0.2271,0.2322,0.2418,0.2499,0.2598,0.2685,0.2786,0.286,0.2956,0.2958,0.3011,0.3068,0.3129,0.3183,0.3111,0.3196,0.3198,0.2994,0.3065,0.3157,0.3256,0.3259,0.3262,0.3264,0,0.2041,0.2095,0.2185,0.2299,0.2333,0.2407,0.255,0.2635,0.2785,0.2854,0.2963,0.3027,0.3151,0.3127,0.3268,0.3228,0.3265,0.329,0.3293,0.3099,0.3021,0.3168,0.3292,0.329,0.3288,0.3286,0.3284,0,0.1976,0.2099,0.2169,0.2212,0.2351,0.2426,0.2517,0.2665,0.275,0.2923,0.3002,0.3129,0.3222,0.3292,0.3367,0.3337,0.3496,0.3447,0.3291,0.3277,0.3413,0.3399,0.3545,0.3545,0.3545,0.3545,0.3544,0,0.1947,0.201,0.2153,0.2191,0.2285,0.2403,0.2524,0.2633,0.2798,0.2893,0.3048,0.313,0.3277,0.3378,0.3411,0.3401,0.3535,0.3318,0.3294,0.3428,0.3415,0.3424,0.3408,0.3548,0.3548,0.3547,0.3546,0,0.1866,0.1963,0.2049,0.2204,0.226,0.2335,0.2524,0.2597,0.278,0.2917,0.2985,0.3179,0.3297,0.341,0.3528,0.3439,0.3457,0.3422,0.3575,0.3555,0.3186,0.3172,0.3235,0.3229,0.3224,0.3219,0.3215,0,0.1823,0.1862,0.2035,0.2091,0.2176,0.2304,0.2381,0.257,0.2651,0.2909,0.2954,0.3152,0.3254,0.3259,0.338,0.3421,0.3388,0.3365,0.3255,0.3187,0.3158,0.3153,0.3147,0.3207,0.3205,0.3204,0.3203,0,0.1738,0.1825,0.1895,0.2008,0.2106,0.2188,0.2325,0.2365,0.2575,0.2766,0.2856,0.2927,0.3054,0.3124,0.3195,0.3213,0.3353,0.3307,0.3317,0.3214,0.3153,0.3129,0.3129,0.3184,0.3187,0.3188,0.3189,0,0.1681,0.1708,0.1814,0.1899,0.2005,0.2043,0.2131,0.2223,0.2323,0.2605,0.2621,0.2834,0.3013,0.3018,0.3077,0.3086,0.3027,0.291,0.294,0.2962,0.2826,0.2706,0.2591,0,0,0,0,0,0.1605,0.1624,0.1691,0.1766,0.1861,0.1926,0.2072,0.2163,0.2364,0.2361,0.2487,0.259,0.2676,0.2781,0.2736,0.2954,0.304,0.2887,0.2919,0.308,0.3102,0.2967,0,0,0,0,0,0,0.1556,0.1618,0.1641,0.1632,0.1659,0.1739,0.1825,0.1964,0.1975,0.2196,0.2261,0.2428,0.2557,0.2683,0.2687,0.2719,0.2683,0.302,0.3013,0.3068,0.3088,0.3105,0.2974,0,0,0,0,0]},{"header":{"parameterUnit":"m.s-1","parameterCategory":2,"la1":30.2991,"la2":30.254,"lo1":-89.0895,"lo2":-89.0444,"dy":0.0017,"dx":0.0017,"nx":28,"ny":28,"refTime":"2024-03-05T09:00:00:Z","depth":"4","parameterNumber":3,"parameterNumberName":"V-component_of_CURRENTS"},"data":[0,0,0,0,0,0,0,0,0,0,0,0,0,0,0,0,0,0,0,0,0,0,0,0,0,0,0,0,0,0,0,0,0,0,0,0,0,0,0,0,0,0,0,0,0,0,0,0,0,0,0,0,0,0,0,0,0,0,0.0183,0.0183,0,0.0142,0.0141,0.0141,0.0108,0.0108,0.0108,0.0108,0.0048,0.0047,0.0045,0,0,0,0,0,0,0,0,0,0,0,0,0,0.0196,0.0196,0.0183,0.0183,0.0182,0.0142,0.0141,0.0141,0.0108,0.0108,0.0108,0.0107,0.0048,0.0047,0.0045,0,0,0,0,0,0,0,0,0,0,0,0,0,0.0176,0.0196,0.0183,0.0161,0.0159,0.0142,0.0141,0.0141,0.0109,0.0108,0.0108,0.0107,0.0049,0.0047,0.0045,0.0042,0,0,0.0039,0.0038,0,0,0,0,0,0,0,0,0.0177,0.0176,0.0165,0.0163,0.016,0.013,0.0124,0.0107,0.0109,0.0128,0.0108,0.0107,0.0074,0.007,0.0063,0.004,0.0037,0.0039,0.0038,0.0037,0.0036,0,0,0,0,0,0,0,0.0179,0.0177,0.0167,0.0165,0.0161,0.014,0.0137,0.012,0.0104,0.0126,0.0124,0.0119,0.0072,0.0065,0.0062,0.0036,0.0039,0.0037,0.0036,0.0035,0.0,0.0,0,0,0,0,0,0,0.0186,0.0179,0.0168,0.0165,0.0168,0.0141,0.0137,0.014,0.0104,0.0098,0.012,0.0118,0.0069,0.0064,0.0059,0.0065,0.0037,0.0035,0.0034,-0.0,0.0,0.0,0,0,0,0,0,0,0.0187,0.0186,0.017,0.017,0.0167,0.0141,0.0144,0.0139,0.0135,0.0099,0.0093,0.0121,0.0068,0.0062,0.0049,0.0062,0.0034,0.0032,-0.0,-0.0,0.0,0.0069,0,0,0,0,0,0,0.0188,0.0187,0.0194,0.0171,0.0167,0.0167,0.0145,0.0139,0.0133,0.013,0.0098,0.0092,0.0068,0.0052,0.0047,0.0059,0.0031,-0.0001,-0.0,0.0,0.0066,0.0071,0.0076,0,0,0,0,0,0.0188,0.0203,0.0195,0.0194,0.0178,0.0168,0.0164,0.0143,0.0134,0.0137,0.0114,0.0093,0.0051,0.0051,0.0045,0.0056,-0.0001,-0.0,0.0,0.0064,0.007,0.0076,0,0,0,0,0,0,0.0212,0.0201,0.0191,0.0202,0.0188,0.0163,0.0165,0.015,0.0135,0.0134,0.0099,0.0091,0.0083,0.0059,0.006,0.0046,0.0021,0.002,0.0071,0.0077,0.0082,0.01,0.0029,0,0,0,0,0,0.0221,0.023,0.0211,0.0219,0.0215,0.0192,0.0186,0.0174,0.0155,0.0148,0.0124,0.0099,0.008,0.0071,0.0049,0.0045,0.0011,0.0046,0.0051,0.0056,0.0066,0.002,0.0021,0.0002,0.0002,0.0002,0,0,0.0232,0.0228,0.0232,0.0225,0.0214,0.0219,0.0188,0.0186,0.0193,0.0145,0.0146,0.0116,0.0082,0.0076,0.007,0.0059,0.0042,0.0056,0.0061,0.0068,0.002,0.0022,0.0024,0.0003,0.0002,0.0002,0,0,0.0261,0.0256,0.0272,0.0267,0.0257,0.0244,0.0247,0.0226,0.0219,0.0214,0.0181,0.016,0.0131,0.011,0.0096,0.0114,0.0068,0.0105,0.0147,0.0103,0.0104,0.0105,0.0063,0.0059,0.0109,0.0109,0.0109,0,0.0274,0.0294,0.0275,0.0289,0.0294,0.026,0.0281,0.0269,0.0246,0.0244,0.0223,0.0179,0.0149,0.0142,0.0147,0.0127,0.0092,0.0131,0.011,0.011,0.011,0.0066,0.0061,0.0112,0.0112,0.0112,0.0111,0,0.0314,0.033,0.034,0.035,0.0351,0.0364,0.0347,0.0345,0.0329,0.0311,0.0296,0.025,0.0225,0.0209,0.0185,0.0173,0.0146,0.0121,0.0099,0.0116,0.0069,0.0063,0.0117,0.0116,0.0115,0.0114,0,0,0.0346,0.0366,0.037,0.0391,0.0388,0.0398,0.041,0.0411,0.0424,0.0385,0.0394,0.0349,0.0316,0.0297,0.0258,0.022,0.0185,0.0177,0.0173,0.0142,0.0086,0.0073,0.0064,0.0154,0.0153,0.0153,0.0053,0,0.0385,0.0431,0.0429,0.0476,0.0499,0.0482,0.0502,0.0497,0.0479,0.0475,0.0419,0.041,0.0352,0.0345,0.0296,0.0216,0.0172,0.0214,0.0068,0.0064,0.0056,0.0058,0.0151,0.0048,0.0047,0.0046,0.0045,0,0.0427,0.0454,0.051,0.0551,0.0561,0.0588,0.0615,0.0627,0.0605,0.0591,0.0556,0.0506,0.0454,0.0402,0.0265,0.0293,0.02,0.0128,0.0122,0.0084,0.004,0.0026,0.0033,0.0034,0.0035,0.0036,0.0037,0,0.0466,0.0514,0.0567,0.0579,0.0615,0.0647,0.0669,0.0667,0.0693,0.0668,0.0676,0.0588,0.056,0.0428,0.0276,0.0269,0.0117,0.0085,-0.0018,-0.002,-0.0009,-0.0009,-0.0013,-0.0013,-0.0013,-0.0013,-0.0013,0,0.0509,0.055,0.0597,0.0625,0.0703,0.0707,0.0779,0.078,0.0796,0.0832,0.0747,0.0744,0.0565,0.0453,0.0301,0.0126,0.013,-0.0007,-0.0045,0.0021,0.0026,-0.0014,-0.0012,-0.0017,-0.0016,-0.0015,-0.0014,0,0.054,0.0567,0.0635,0.0695,0.0726,0.0784,0.0868,0.0908,0.0914,0.0958,0.0959,0.0863,0.0715,0.0523,0.0307,0.0173,-0.0001,-0.0066,0.0027,-0.0005,-0.0117,-0.0111,-0.019,-0.0191,-0.0192,-0.0193,-0.0194,0,0.0559,0.0599,0.0692,0.0745,0.0782,0.087,0.0931,0.097,0.1016,0.1028,0.1052,0.0934,0.0842,0.0535,0.0319,0.0022,-0.0024,-0.012,-0.0127,-0.0105,-0.0134,-0.0126,-0.0119,-0.0195,-0.0196,-0.0196,-0.0196,0,0.0595,0.0632,0.0687,0.0798,0.0882,0.0977,0.1067,0.1115,0.1156,0.1163,0.1129,0.0969,0.08,0.0544,0.0315,0.01,-0.0061,-0.0132,-0.0131,-0.0139,-0.0113,-0.0139,-0.0131,-0.02,-0.0199,-0.0199,-0.0199,0,0.0624,0.0669,0.0745,0.0843,0.0952,0.1054,0.1101,0.1157,0.1206,0.1215,0.1198,0.1013,0.0904,0.0585,0.0374,0.016,0.0097,0.0017,0.0009,0.001,0.009,0.0154,0.0121,0,0,0,0,0,0.0646,0.0693,0.0782,0.089,0.0997,0.1065,0.1177,0.1212,0.1259,0.1246,0.1227,0.1068,0.0756,0.0624,0.0408,0.0335,0.0049,0.0072,-0.0049,-0.022,-0.0216,-0.0158,0,0,0,0,0,0,0.0659,0.0739,0.0777,0.0912,0.099,0.1115,0.1191,0.1224,0.1219,0.1228,0.107,0.0996,0.0696,0.0877,0.0397,0.0333,0.0222,-0.007,-0.0075,-0.0222,-0.0219,-0.0215,-0.0154,0,0,0,0,0]}]]